Location: Kershaw
(34.5481°N, 80.5823°W)
Time: 14:15:23
(UTC+00:00)

Transit 4A - Pass Details

Date: 08 October 2022
Orbit: 871 x 972 km, 66.8° (Epoch: 29 November)

Event Time Altitude Azimuth Distance (km) Brightness Sun altitude
Rises 00:38:10 0° 170° (S) 3,618 10.8 -21.4°
Enters shadow 00:39:41 - 164° (SSE) 3,130 10.4 -21.7°
Reaches altitude 10° 00:41:14 10° 157° (SSE) 2,662 - -22.0°
Maximum altitude 00:45:59 23° 106° (ESE) 1,855 - -23.0°
Drops below altitude 10° 00:50:40 10° 56° (NE) 2,620 - -23.9°
Sets 00:53:38 0° 42° (NE) 3,549 - -24.5°
